Location: SBMNH
(34.4407°N, 119.7157°W)
Time: 09:41:49
(UTC-07:00)

Tiangong - Visible Passes

Search period start: 16 August 2022 00:00
Search period end: 26 August 2022 00:00
Orbit: 381 x 385 km, 41.5° (Epoch: 16 August)

Date Brightness Start Highest point End Pass type
(mag) Time Alt. Az. Time Alt. Az. Time Alt. Az.
16 Aug -1.5 20:53:15 10° WSW 20:56:20 55° NNW 20:58:53 14° NE visible
16 Aug 1.5 22:30:57 10° WNW 22:31:05 11° WNW 22:31:05 11° WNW visible
17 Aug -0.3 21:30:25 10° WNW 21:33:09 26° NNW 21:33:57 23° NNE visible
18 Aug -0.7 20:29:49 10° W 20:32:46 35° NNW 20:35:43 10° NE visible
18 Aug 0.8 22:07:33 10° NW 22:08:48 17° NNW 22:08:48 17° NNW visible
19 Aug 0.0 21:07:00 10° WNW 21:09:35 23° N 21:11:21 15° NE visible
20 Aug -0.2 20:06:20 10° WNW 20:09:05 27° NNW 20:11:50 10° NE visible
20 Aug 0.1 21:43:52 10° NW 21:45:57 22° N 21:45:57 22° N visible
21 Aug 0.0 20:43:22 10° NW 20:45:53 21° N 20:48:18 11° NE visible
21 Aug 1.4 22:20:14 10° NW 22:20:28 12° NW 22:20:28 12° NW visible
22 Aug -0.5 21:19:54 10° NW 21:22:39 27° NNE 21:22:46 27° NNE visible
23 Aug -0.2 20:19:27 10° NW 20:22:02 23° N 20:24:37 10° ENE visible
23 Aug 0.7 21:56:06 10° WNW 21:57:11 19° NW 21:57:11 19° NW visible
24 Aug -1.1 20:55:42 10° NW 20:58:39 36° NNE 20:59:25 30° NE visible
25 Aug -0.5 19:55:16 10° NW 19:58:01 27° NNE 20:00:45 10° ENE visible
25 Aug -0.5 21:31:52 10° WNW 21:33:48 34° WNW 21:33:48 34° WNW visible
